Location: Bédeille
(43.0872°N, 1.1041°E)
Time: 13:22:10
(UTC+00:00)

Atlas Centaur 2 - Pass Details

Date: 03 February 2023
Orbit: 458 x 1296 km, 30.4° (Epoch: 19 March)

Event Time Altitude Azimuth Distance (km) Brightness Sun altitude
Rises 19:55:10 0° 245° (WSW) 4,166 6.6 -30.3°
Reaches altitude 10° 19:58:20 10° 236° (SW) 3,257 5.8 -30.9°
Enters shadow 20:05:34 33° 177° (S) 2,022 4.0 -32.2°
